Dewpoint
67 67 67 67 66 66 65 65 65 65 64 65 64 63 62 62 62 61 60 60 61 64 66 67 66 65 64 66 67 66 66 66 65 64 64 64 64 63 63 63 65 64 63 62 62 62 62 62 62 61 60 61 61 61 62 61 61 61 61 61 61 61 61 61 61 61 61 61 61 60 60 60 60 60 60 60 60 60 60 59 59 59 59 58 59
66 66 66 66 65 65 64 64 64 64 64 63 63 63 62 63 62 61 61 62 61 63 65 66 66 65 65 66 66 66 65 65 65 65 64 65 65 64 64 65 65 65 65 63 64 63 63 62 62 62 62 62 61 60 61 62 62 61 61 61 61 61 61 61 61 61 61 60 60 60 60 60 61 61 61 60 60 60 60 60 60 60 59 58 58
65 65 65 65 65 64 63 64 63 63 63 63 64 65 63 63 62 61 61 63 63 63 61 65 65 65 65 65 65 65 65 65 66 66 66 65 64 63 63 64 64 65 65 66 64 63 62 62 62 63 63 62 62 63 63 63 62 62 62 62 62 62 62 62 61 61 61 61 61 60 60 60 60 60 61 60 60 60 60 60 59 59 59 58 58
66 66 66 65 64 63 65 64 64 65 64 65 65 65 66 66 67 67 66 65 64 64 66 64 64 64 64 65 65 65 65 64 65 65 66 65 64 63 64 65 65 64 65 66 65 65 64 64 64 64 63 62 62 63 63 63 62 62 62 62 62 63 63 63 63 63 62 62 62 62 61 60 60 60 60 60 60 60 60 60 59 59 59 59 58
66 65 66 65 63 64 65 65 65 67 67 66 67 66 66 66 66 66 64 64 63 64 66 66 65 63 63 64 64 65 65 64 64 64 65 65 64 64 64 65 65 66 66 65 67 65 64 64 63 63 63 63 63 63 62 62 62 62 63 63 63 63 63 62 63 63 63 63 63 62 62 62 61 61 60 60 60 60 60 60 59 59 59 59 58
66 66 66 67 65 65 66 65 67 67 68 67 66 65 65 65 64 64 66 64 63 65 65 65 64 63 63 64 65 64 64 64 64 64 65 64 64 65 65 65 64 65 65 66 66 66 66 65 65 65 64 63 63 63 63 62 63 63 63 62 62 62 62 62 63 63 64 64 64 63 63 62 62 61 61 61 60 60 60 60 60 59 59 59 59
67 66 66 66 66 66 65 67 67 66 67 68 67 67 66 65 64 63 63 64 63 64 65 65 64 63 63 64 64 64 64 64 64 64 64 64 64 65 65 65 65 65 65 65 66 66 66 65 65 66 66 66 65 64 63 63 63 63 63 63 63 62 63 64 63 63 64 64 64 64 64 63 63 62 61 61 60 60 60 60 60 59 59 59 59
66 66 65 66 66 66 66 67 67 66 67 67 66 65 65 65 64 63 63 63 63 63 64 64 64 64 64 63 64 64 64 64 64 64 64 64 64 64 64 64 64 65 66 64 65 66 67 66 66 65 65 65 65 65 65 64 65 65 64 64 64 64 64 64 64 65 65 64 64 64 64 64 64 64 63 62 61 60 60 60 60 60 59 59 59
66 67 65 66 67 65 65 66 67 67 66 66 65 66 65 64 64 64 63 63 63 62 62 63 64 64 62 63 63 63 63 63 64 64 65 64 64 64 64 63 65 67 64 64 65 65 67 66 66 66 66 65 65 64 64 65 65 65 65 65 64 64 64 65 65 65 65 64 64 64 64 65 64 64 64 63 62 61 61 60 60 60 60 59 59
66 67 66 66 66 66 64 65 67 67 66 66 66 66 66 65 64 64 64 63 61 62 62 64 64 64 64 63 62 62 62 63 64 65 64 64 64 64 63 64 64 64 65 65 64 65 65 66 66 66 66 66 66 65 65 64 65 65 64 64 65 65 65 66 65 65 65 65 65 65 64 64 64 64 64 64 64 63 62 61 60 60 59 59 59
66 67 66 67 66 66 66 66 67 66 66 65 64 65 65 65 64 64 64 63 62 63 63 64 64 63 63 62 62 62 62 63 63 64 64 64 65 64 64 63 63 63 64 64 64 64 64 63 63 64 65 66 65 65 65 64 65 65 65 64 65 66 65 65 65 64 65 64 64 63 63 64 63 62 62 63 64 64 63 62 61 61 60 59 59
66 67 66 66 65 65 66 66 66 67 65 64 63 63 65 64 64 63 63 64 63 64 64 63 63 62 62 62 62 62 62 62 63 63 63 62 63 62 63 63 62 62 64 64 64 64 64 64 65 64 65 66 66 66 65 66 65 65 65 65 66 65 65 64 65 64 64 63 63 62 62 62 61 61 60 61 61 63 64 63 62 61 60 60 59
67 66 66 66 65 65 66 65 67 66 65 64 65 65 65 65 64 63 62 62 63 64 64 63 62 62 62 61 62 62 63 62 62 62 62 62 62 62 63 63 63 62 63 63 63 63 64 64 63 63 64 64 64 65 65 65 65 65 64 64 64 65 64 64 64 64 63 62 62 62 62 61 61 63 64 64 62 62 64 63 62 61 61 60 59
65 66 66 66 66 65 65 66 66 65 66 66 65 66 64 64 63 62 63 62 62 63 63 62 60 60 59 60 60 61 62 62 62 62 62 62 62 63 63 63 63 63 63 63 62 63 64 64 63 63 63 63 63 62 63 64 64 65 64 64 64 64 63 63 63 63 63 62 62 61 61 60 63 64 64 64 64 64 64 63 62 62 61 60 60
65 65 64 66 66 66 66 66 65 66 65 64 65 65 64 64 63 62 62 62 63 64 63 62 59 60 60 59 57 57 59 61 61 62 62 62 62 62 62 62 63 63 62 61 61 62 63 63 63 63 63 63 63 62 62 63 63 64 64 63 62 63 63 63 63 62 61 61 61 61 60 61 63 64 64 64 65 64 64 63 62 62 61 61 61
65 66 66 66 65 66 65 66 66 65 64 64 64 64 64 63 64 62 62 62 62 62 64 62 61 60 56 55 55 56 55 57 59 61 62 61 59 60 62 62 61 62 62 61 61 62 62 63 63 62 63 63 61 60 59 59 61 62 61 62 62 62 62 62 61 62 62 61 61 61 60 61 63 64 64 64 64 64 63 63 62 62 62 63 63
65 65 66 66 65 65 65 66 65 65 65 64 63 64 63 64 64 63 62 62 61 61 62 63 61 61 58 56 54 53 54 57 59 59 61 60 60 60 62 61 61 61 61 61 62 62 62 63 63 64 63 62 60 58 58 58 59 61 59 60 60 58 57 57 57 58 60 61 61 61 60 61 62 63 64 64 64 64 63 63 63 62 62 62 61
65 66 66 65 65 64 65 64 65 65 64 64 64 64 64 64 64 63 63 62 62 61 60 61 62 62 61 59 57 54 55 58 57 55 60 60 59 61 61 61 61 61 61 61 63 62 62 62 62 62 63 62 60 59 58 58 60 56 56 58 60 60 58 56 56 56 58 60 60 60 60 60 60 61 61 62 62 62 62 62 61 61 61 60 59
65 65 65 65 65 64 65 64 65 65 66 64 63 63 63 63 64 62 62 62 62 61 60 60 61 61 62 61 61 59 59 57 55 57 55 58 59 58 59 61 61 61 62 62 60 60 61 61 61 61 58 56 56 56 56 58 59 59 59 58 57 56 57 58 58 58 58 59 60 60 59 59 59 59 59 59 59 59 59 58 58 58 57 57 57
64 65 65 65 64 64 63 64 65 65 65 64 64 64 63 63 63 62 62 62 62 61 60 61 60 60 61 60 60 60 60 59 58 56 56 55 57 60 60 59 60 61 61 61 58 59 60 60 60 59 55 54 54 54 54 54 54 54 55 57 56 55 55 55 55 56 58 60 60 59 59 57 58 57 57 57 57 57 57 57 57 57 57 56 56
64 64 64 64 64 64 64 64 65 65 64 65 64 64 63 63 63 63 62 62 62 62 61 61 60 60 60 60 60 59 58 59 59 57 57 56 56 57 58 59 58 59 60 60 57 58 59 59 58 56 55 54 54 54 54 53 53 53 56 55 55 55 55 54 52 52 53 59 60 60 59 58 58 57 56 57 56 56 56 56 56 56 56 56 56
64 64 64 64 64 64 65 65 65 65 64 64 64 63 63 63 63 63 63 63 62 62 61 61 61 61 61 60 58 58 58 57 58 57 57 57 56 56 57 56 55 56 58 54 54 54 52 53 54 53 53 53 53 53 52 52 53 53 54 55 55 55 55 54 51 52 53 55 58 59 59 59 59 59 58 57 57 56 56 56 56 55 56 56 56
64 64 63 63 63 64 64 64 63 64 64 62 61 64 64 64 64 64 64 63 62 62 61 61 61 61 60 59 59 59 58 57 57 57 56 55 56 56 56 56 55 54 53 51 48 47 48 50 50 51 51 51 51 52 52 52 55 55 55 54 55 56 54 52 51 51 53 55 56 55 57 58 58 59 58 58 58 58 57 56 56 55 55 54 54
63 63 63 64 63 64 63 63 62 62 63 62 62 63 65 64 64 64 64 63 63 62 61 60 61 61 60 60 60 60 59 58 59 58 57 56 56 56 56 57 53 52 51 52 46 44 45 45 46 46 48 50 51 52 53 52 54 56 54 54 54 53 55 54 51 51 50 53 54 54 54 54 53 54 54 54 54 55 56 58 57 56 54 54 53
62 62 62 63 63 63 62 62 62 63 63 64 64 64 64 64 64 64 64 63 63 62 61 61 61 61 60 60 61 61 59 59 60 59 58 57 57 56 56 56 52 51 50 50 46 44 41 39 44 47 48 50 50 50 51 52 52 55 54 54 53 53 53 55 54 52 50 50 53 54 53 52 52 52 51 51 51 52 53 53 51 51 52 55 53
61 61 62 64 63 62 63 62 62 63 64 63 63 64 65 64 64 64 64 63 63 62 62 61 61 61 61 61 62 61 61 61 60 60 58 57 57 56 55 55 52 50 50 49 44 39 37 39 45 46 46 47 49 50 51 51 52 54 53 51 52 52 52 53 53 51 50 49 49 52 54 55 53 53 53 53 52 51 51 49 49 50 49 50 52
61 61 64 62 63 63 62 62 62 63 63 63 63 63 63 63 63 63 64 63 63 62 62 61 61 62 61 61 61 60 61 61 61 60 58 57 57 56 55 53 50 49 49 46 40 38 33 37 42 42 44 47 48 49 49 50 51 53 53 49 48 50 50 50 51 50 49 48 47 47 48 50 50 51 51 51 50 50 51 51 51 49 49 50 51
62 63 63 62 62 62 62 62 63 63 63 64 64 64 63 62 62 63 63 64 63 62 61 62 62 62 61 61 60 59 60 61 61 61 59 58 57 57 55 51 48 46 47 42 39 35 31 34 39 42 44 46 47 49 51 50 50 53 51 46 46 47 49 49 51 51 50 50 48 47 47 47 48 49 50 51 51 52 52 51 51 51 50 51 50
62 62 62 62 62 61 61 61 61 62 62 63 62 63 63 63 62 62 62 63 63 63 62 62 61 62 61 61 60 60 60 60 60 61 61 60 58 56 55 49 48 46 44 38 38 32 30 36 37 40 42 44 46 48 48 48 50 50 46 44 44 46 49 50 49 49 49 49 48 48 48 49 49 50 51 52 52 51 51 51 52 51 51 51 50
61 62 61 61 61 62 60 60 61 61 61 62 62 63 63 63 62 62 62 62 62 62 62 62 62 62 61 61 61 61 61 61 61 60 60 60 59 57 57 52 48 45 43 38 38 33 33 38 38 38 41 43 45 47 46 46 51 48 44 43 44 45 49 49 48 47 48 48 47 47 47 49 51 52 50 51 51 50 49 50 50 51 52 51 50
61 61 60 60 61 60 60 60 60 59 59 60 61 62 62 62 62 62 62 62 62 61 62 62 62 62 61 60 60 60 61 60 60 61 60 60 60 60 60 57 53 47 43 40 33 35 35 38 40 39 41 42 42 43 43 44 49 48 44 43 43 47 49 48 48 47 47 48 46 46 47 49 50 51 51 51 49 49 48 48 50 50 50 51 51
60 60 60 60 60 59 59 59 59 59 59 59 60 60 61 61 61 62 62 62 62 61 61 62 62 62 61 60 60 60 60 60 60 60 60 60 60 60 59 58 58 53 43 37 33 34 37 39 39 40 41 41 40 39 40 39 45 51 45 43 44 49 46 44 47 47 47 47 45 45 47 48 50 51 52 52 51 49 48 49 47 47 50 49 49
59 59 60 59 59 59 59 59 58 59 57 58 60 59 60 60 60 61 61 60 61 61 60 61 62 62 61 61 60 61 61 60 59 60 60 60 59 59 58 58 57 54 40 37 33 35 42 41 41 40 40 40 38 37 37 37 40 46 48 44 45 45 40 40 42 46 46 46 45 44 45 47 46 49 50 50 51 51 50 49 50 49 49 46 46
59 59 58 58 58 58 58 58 59 58 58 59 57 58 57 57 58 61 60 60 59 59 59 60 60 61 61 61 61 61 61 60 60 61 60 60 59 59 57 57 55 55 44 38 35 36 37 40 42 40 40 39 37 37 37 38 38 42 44 45 46 43 38 38 39 41 45 45 44 43 43 46 46 47 48 47 48 47 49 47 46 47 47 44 43
58 58 58 58 57 57 57 57 57 56 57 56 58 58 57 58 57 58 58 58 57 57 57 59 59 61 60 59 59 60 61 60 60 60 60 60 58 58 57 56 55 53 47 36 37 40 37 39 41 40 40 39 39 37 37 38 38 39 42 43 45 43 39 38 38 37 42 44 44 43 42 43 46 46 47 47 46 45 46 46 45 46 45 43 42
59 58 57 56 57 55 56 56 56 56 56 55 57 57 56 56 56 56 56 57 56 55 56 56 57 59 59 59 58 60 60 60 60 59 59 59 57 57 56 55 54 53 48 39 38 41 38 38 40 39 40 39 39 37 37 38 38 38 40 41 44 42 39 37 38 37 39 44 44 43 43 42 44 45 45 45 45 45 45 45 45 44 44 44 42
58 56 56 57 57 56 56 55 55 55 53 54 54 56 56 56 57 54 54 55 55 55 56 56 60 59 58 59 59 60 60 59 58 57 57 57 59 56 55 53 53 53 51 42 42 40 38 38 40 41 41 39 39 37 38 37 38 38 39 40 43 42 40 38 37 38 43 43 43 43 42 42 43 44 44 44 44 44 44 44 44 44 44 44 44
55 55 55 55 54 54 54 54 54 54 53 53 53 54 53 53 55 55 55 54 55 55 54 56 58 59 59 59 59 60 60 59 58 57 56 56 58 56 55 53 52 50 48 42 44 42 38 38 39 41 41 39 40 39 38 38 38 38 38 38 41 42 41 40 40 39 40 40 42 41 43 42 43 44 44 44 44 43 43 44 44 44 44 44 44
54 54 54 53 52 53 53 50 49 49 48 48 49 50 51 53 54 56 55 54 55 51 53 57 59 60 60 59 59 59 59 58 58 58 57 56 57 57 56 55 53 49 47 45 45 43 41 42 43 42 40 41 40 40 39 39 38 38 38 39 38 39 43 42 43 43 43 42 41 41 40 40 42 43 44 43 43 44 44 44 44 44 44 44 43
54 53 51 52 53 53 53 51 49 48 46 45 45 46 48 51 53 54 55 53 55 54 55 57 59 59 59 59 59 59 59 59 58 57 57 57 58 56 55 54 52 48 46 46 45 45 44 45 43 43 40 40 42 41 40 39 39 39 39 39 38 39 40 44 44 43 43 42 41 40 42 42 42 43 43 44 44 44 44 44 45 44 44 43 42
53 51 53 54 53 51 50 49 47 46 45 44 44 45 46 47 51 52 53 54 53 53 53 57 59 59 58 58 58 58 58 56 54 57 57 57 57 55 54 54 50 47 48 47 46 46 46 45 44 45 42 41 42 42 41 41 40 40 41 42 41 40 40 42 44 43 42 40 41 40 40 41 40 41 41 41 42 44 44 44 45 45 44 42 41
55 55 54 53 51 49 47 46 44 44 43 43 42 41 43 46 49 50 52 51 53 54 52 55 58 58 58 58 59 58 54 51 48 45 45 48 53 56 56 54 53 53 50 49 48 48 48 45 46 44 44 43 42 44 43 42 42 42 43 43 43 42 43 43 45 44 43 41 41 40 39 41 40 40 40 39 39 44 42 43 42 43 43 41 41
54 52 50 49 48 47 45 43 42 41 40 40 39 38 39 41 48 50 51 51 52 53 53 54 56 57 56 57 54 55 52 50 46 42 41 41 42 42 44 48 54 55 53 52 51 51 49 49 49 47 45 45 47 46 44 43 45 46 44 43 44 44 44 43 42 46 44 42 41 40 40 41 40 38 38 39 39 41 41 40 42 42 42 41 41
51 50 48 47 45 43 42 40 39 39 38 39 37 38 38 38 43 50 50 52 53 53 52 53 55 56 55 54 52 54 54 52 46 45 44 42 40 40 40 40 40 42 46 48 47 48 47 46 46 48 48 48 49 50 49 48 48 48 47 47 44 43 44 44 43 43 46 43 42 41 41 42 41 39 39 39 39 39 40 40 41 41 42 41 41
49 47 46 44 42 41 39 37 36 36 35 37 36 37 37 38 38 45 50 53 54 53 53 54 54 52 52 52 52 54 55 55 52 52 47 44 43 42 42 42 40 40 39 41 44 47 47 45 44 47 49 50 49 49 50 49 49 47 47 46 46 46 45 44 45 44 48 43 42 42 41 43 41 40 39 40 40 40 40 41 41 41 41 41 40
48 46 44 42 41 40 38 36 34 34 34 37 36 37 37 38 39 44 53 55 55 53 53 54 54 54 54 54 53 50 48 47 46 47 52 50 47 47 48 49 49 45 40 40 40 43 47 49 48 42 48 50 46 49 52 52 50 48 47 48 48 46 45 45 45 45 47 45 42 42 42 44 42 41 40 40 42 41 41 41 40 40 41 40 40
48 46 44 43 42 40 38 35 33 33 35 36 35 36 37 39 43 48 54 56 55 53 53 54 55 55 54 52 51 49 46 43 43 44 49 52 51 52 50 50 50 51 51 50 47 45 45 48 47 45 45 49 49 50 50 55 54 53 51 49 49 48 47 47 49 50 49 49 44 44 42 43 43 41 41 42 45 41 41 41 41 40 41 40 40
49 47 46 44 42 39 38 35 33 32 33 35 35 37 38 40 45 50 50 54 55 54 51 50 50 52 51 49 45 41 40 39 39 41 46 54 55 54 54 54 54 53 53 52 46 47 49 49 49 49 50 49 45 48 47 48 49 51 51 52 51 49 48 48 49 48 48 49 48 46 44 45 47 44 45 46 45 43 43 42 41 41 41 41 40
47 48 47 44 42 41 39 36 33 32 32 35 35 36 39 41 45 48 47 46 49 52 46 43 44 45 44 42 40 38 38 38 38 38 42 47 50 51 52 53 53 52 50 48 46 45 45 44 45 45 44 42 42 42 42 41 45 45 49 49 49 49 48 47 48 46 47 48 48 51 49 47 49 49 49 49 47 45 43 43 41 42 42 41 40
46 46 46 46 45 43 39 36 34 32 32 35 35 36 38 39 42 44 43 42 43 49 47 43 41 41 43 45 43 38 36 38 36 36 38 41 42 44 47 49 50 51 48 45 45 45 43 42 42 44 46 46 45 42 42 41 41 43 47 47 48 50 49 47 46 46 47 47 47 50 48 49 49 49 47 48 45 43 43 40 42 42 41 40 40
45 45 45 45 45 43 40 37 38 33 33 36 35 35 36 37 38 36 37 38 40 42 46 44 41 39 38 40 41 40 38 38 36 36 36 38 39 42 44 43 43 46 45 44 43 43 43 43 43 47 47 49 52 53 52 48 47 45 47 47 48 48 49 49 49 47 48 49 49 52 48 47 47 47 47 44 45 44 42 42 42 41 42 42 40